TimeEST,TemperatureF,Dew PointF,Humidity,Sea Level PressureIn,VisibilityMPH,Wind Direction,Wind SpeedMPH,Gust SpeedMPH,PrecipitationIn,Events,Conditions,WindDirDegrees,DateUTC
12:55 AM,26.6,17.6,69,30.29,10.0,Calm,Calm,-,N/A,,Clear,0,2012-12-14 05:55:00
1:15 AM,26.6,19.4,74,30.28,10.0,Calm,Calm,-,N/A,,Clear,0,2012-12-14 06:15:00
1:35 AM,26.6,17.6,69,30.28,10.0,Calm,Calm,-,N/A,,Clear,0,2012-12-14 06:35:00
1:55 AM,28.4,19.4,69,30.29,10.0,Calm,Calm,-,N/A,,Clear,0,2012-12-14 06:55:00
2:35 AM,26.6,17.6,69,30.27,10.0,Calm,Calm,-,N/A,,Clear,0,2012-12-14 07:35:00
2:55 AM,26.6,17.6,69,30.27,10.0,Calm,Calm,-,N/A,,Clear,0,2012-12-14 07:55:00
3:15 AM,26.6,19.4,74,30.26,10.0,Calm,Calm,-,N/A,,Clear,0,2012-12-14 08:15:00
3:35 AM,26.6,19.4,74,30.26,10.0,SW,3.5,-,N/A,,Clear,230,2012-12-14 08:35:00
3:55 AM,28.4,19.4,69,30.26,10.0,Calm,Calm,-,N/A,,Clear,0,2012-12-14 08:55:00
4:15 AM,28.4,19.4,69,30.25,10.0,SW,3.5,-,N/A,,Clear,230,2012-12-14 09:15:00
4:35 AM,30.2,19.4,64,30.24,10.0,SW,3.5,-,N/A,,Clear,230,2012-12-14 09:35:00
4:55 AM,30.2,19.4,64,30.24,10.0,SW,4.6,-,N/A,,Clear,230,2012-12-14 09:55:00
5:15 AM,28.4,19.4,69,30.24,10.0,Calm,Calm,-,N/A,,Clear,0,2012-12-14 10:15:00
5:35 AM,28.4,17.6,64,30.24,10.0,SSW,3.5,-,N/A,,Clear,210,2012-12-14 10:35:00
5:45 AM,28.4,17.6,64,30.24,10.0,SW,5.8,-,N/A,,Clear,220,2012-12-14 10:45:00
6:45 AM,26.6,17.6,69,30.23,10.0,SSW,3.5,-,N/A,,Clear,210,2012-12-14 11:45:00
7:45 AM,26.6,19.4,74,30.23,10.0,SW,3.5,-,N/A,,Clear,220,2012-12-14 12:45:00
8:45 AM,32.0,21.2,64,30.23,10.0,SW,4.6,-,N/A,,Clear,220,2012-12-14 13:45:00
9:45 AM,35.6,21.2,56,30.23,10.0,West,4.6,-,N/A,,Clear,270,2012-12-14 14:45:00
10:45 AM,37.4,23.0,56,30.21,10.0,West,5.8,-,N/A,,Clear,270,2012-12-14 15:45:00
11:55 AM,41.0,23.0,49,30.17,10.0,West,5.8,-,N/A,,Clear,270,2012-12-14 16:55:00
12:55 PM,42.8,24.8,49,30.14,10.0,SSW,5.8,-,N/A,,Clear,210,2012-12-14 17:55:00
1:50 PM,44.6,24.8,46,30.12,10.0,West,6.9,-,N/A,,Clear,260,2012-12-14 18:50:00
3:45 PM,44.6,21.2,39,30.14,10.0,NNW,9.2,-,N/A,,Clear,340,2012-12-14 20:45:00
4:45 PM,39.2,19.4,45,30.15,10.0,NW,5.8,-,N/A,,Clear,320,2012-12-14 21:45:00
5:45 PM,37.4,19.4,48,30.16,10.0,NNE,4.6,-,N/A,,Clear,30,2012-12-14 22:45:00
6:55 PM,37.4,19.4,48,30.18,10.0,NNE,3.5,-,N/A,,Clear,30,2012-12-14 23:55:00
7:45 PM,33.8,19.4,56,30.20,10.0,Calm,Calm,-,N/A,,Clear,0,2012-12-15 00:45:00
9:15 PM,33.8,21.2,60,30.21,10.0,NNW,4.6,-,N/A,,Clear,330,2012-12-15 02:15:00
9:35 PM,35.6,21.2,56,30.20,10.0,NW,3.5,-,N/A,,Clear,320,2012-12-15 02:35:00
9:55 PM,32.0,19.4,60,30.20,10.0,NW,3.5,-,N/A,,Clear,320,2012-12-15 02:55:00
10:15 PM,35.6,23.0,60,30.21,10.0,NNW,4.6,-,N/A,,Clear,330,2012-12-15 03:15:00
10:35 PM,33.8,23.0,65,30.20,10.0,NNW,8.1,-,N/A,,Clear,340,2012-12-15 03:35:00
10:55 PM,33.8,21.2,60,30.20,10.0,NNW,5.8,-,N/A,,Clear,340,2012-12-15 03:55:00
11:15 PM,35.6,24.8,65,30.20,10.0,NW,3.5,-,N/A,,Clear,320,2012-12-15 04:15:00
11:35 PM,35.6,24.8,65,30.21,10.0,NW,3.5,-,N/A,,Clear,310,2012-12-15 04:35:00